Austin Bergstrom, TX

1:05 AM CDT on April 23, 2017 (GMT -0500)
Austin Bergstrom International

Weather History for KAUS - October, 2012

Change the Weather History Date:

Tuesday, October 23, 2012

  Actual Average Record
Temperature  
Mean Temperature 78 °F 67 °F  
Max Temperature 87 °F 80 °F 92 °F (1991)
Min Temperature 68 °F 54 °F 38 °F (1945)
Degree Days  
Heating Degree Days 0 2  
Month to date heating degree days 19 27  
Since 1 July heating degree days 19 29  
Cooling Degree Days 13 4  
Month to date cooling degree days 166 147  
Year to date cooling degree days 3044 2675  
Growing Degree Days 26 (Base 50)    
Moisture  
Dew Point 67 °F    
Average Humidity 76    
Maximum Humidity 97    
Minimum Humidity 55    
Precipitation  
Precipitation 0.00 in 0.16 in 3.43 in (2004)
Month to date precipitation 0.75 3.11  
Year to date precipitation 34.21 28.36  
Snow  
Snow 0.00 in - - ()
Month to date snowfall 0.0  
Since 1 July snowfall 0.0  
Since 1 September snowfall 0.0  
Snow Depth 0.00 in    
Sea Level Pressure  
Sea Level Pressure 29.93 in    
Wind  
Wind Speed 7 mph (SSE)    
Max Wind Speed 15 mph    
Max Gust Speed 20 mph    
Visibility 10 miles    
Events      
T = Trace of Precipitation, MM = Missing Value Source: NWS Daily Summary

Daily Weather History Graph

Daily Weather History Graph

Search for Another Location

Airport or City:

Trip Planner

Search our weather history database for the weather conditions in past years. The results will help you decide how hot, cold, wet, or windy it might be!

Date:

Astronomy

Oct. 23, 2012 Rise Set
Actual Time 7:38 AM CDT 6:50 PM CDT
Civil Twilight 7:14 AM CDT 7:15 PM CDT
Nautical Twilight 6:46 AM CDT 7:43 PM CDT
Astronomical Twilight 6:18 AM CDT 8:11 PM CDT
Moon 3:13 PM CDT 1:56 AM CDT
Length of Visible Light 12h 01m
Length of Day
11h 12m
Waxing Gibbous, 67% of the Moon is Illuminated
Oct 23
Waxing Gibbous
Oct 29
Full
Nov 6
Last Quarter
Nov 13
New
Nov 20
First Quarter

Hourly Weather History & Observations

Time (CDT) Temp. Heat Index Dew Point Humidity Pressure Visibility Wind Dir Wind Speed Gust Speed Precip Events Conditions
12:53 AM 71.6 °F - 68.0 °F 88% 29.96 in 10.0 mi SSE 4.6 mph - N/A   Partly Cloudy
1:53 AM 69.1 °F - 66.9 °F 93% 29.92 in 10.0 mi SSE 4.6 mph - N/A   Mostly Cloudy
2:29 AM 69.8 °F - 66.2 °F 88% 29.94 in 10.0 mi South 4.6 mph - N/A   Scattered Clouds
2:53 AM 70.0 °F - 68.0 °F 93% 29.92 in 10.0 mi South 4.6 mph - N/A   Mostly Cloudy
3:53 AM 70.0 °F - 68.0 °F 93% 29.91 in 10.0 mi SSE 4.6 mph - N/A   Mostly Cloudy
4:50 AM 69.8 °F - 68.0 °F 94% 29.94 in 10.0 mi SSE 3.5 mph - N/A   Mostly Cloudy
4:53 AM 69.1 °F - 66.9 °F 93% 29.92 in 10.0 mi Calm Calm - N/A   Mostly Cloudy
5:53 AM 69.1 °F - 66.9 °F 93% 29.93 in 8.0 mi SE 3.5 mph - N/A   Scattered Clouds
6:53 AM 69.1 °F - 66.9 °F 93% 29.94 in 10.0 mi East 3.5 mph - N/A   Mostly Cloudy
7:32 AM 69.8 °F - 66.2 °F 88% 29.96 in 10.0 mi Calm Calm - N/A   Overcast
7:53 AM 69.1 °F - 66.9 °F 93% 29.95 in 9.0 mi East 3.5 mph - N/A   Overcast
8:53 AM 70.0 °F - 68.0 °F 93% 29.97 in 10.0 mi Calm Calm - N/A   Overcast
9:53 AM 73.9 °F - 69.1 °F 85% 29.97 in 10.0 mi South 6.9 mph - N/A   Mostly Cloudy
10:53 AM 77.0 °F - 69.1 °F 76% 29.97 in 10.0 mi SSE 10.4 mph - N/A   Overcast
11:53 AM 78.8 °F - 69.8 °F 74% 29.98 in 10.0 mi South 10.4 mph - N/A   Overcast
12:42 PM 80.6 °F 83.2 °F 68.0 °F 65% 29.97 in 10.0 mi South 12.7 mph - N/A   Overcast
12:53 PM 80.6 °F 83.2 °F 68.0 °F 65% 29.97 in 10.0 mi South 10.4 mph - N/A   Overcast
1:53 PM 81.0 °F 83.3 °F 66.9 °F 62% 29.92 in 10.0 mi SSE 8.1 mph - N/A   Overcast
2:53 PM 82.9 °F 85.4 °F 66.9 °F 58% 29.90 in 10.0 mi SSE 6.9 mph - N/A   Overcast
3:53 PM 84.0 °F 86.5 °F 66.9 °F 56% 29.89 in 10.0 mi South 9.2 mph - N/A   Mostly Cloudy
4:53 PM 84.9 °F 87.6 °F 66.9 °F 55% 29.88 in 10.0 mi SSE 9.2 mph - N/A   Scattered Clouds
5:53 PM 84.0 °F 86.3 °F 66.0 °F 55% 29.88 in 10.0 mi SSE 9.2 mph - N/A   Scattered Clouds
6:53 PM 81.0 °F 83.0 °F 66.0 °F 60% 29.88 in 10.0 mi SSE 8.1 mph - N/A   Partly Cloudy
7:53 PM 78.1 °F - 66.0 °F 66% 29.91 in 10.0 mi SE 5.8 mph - N/A   Partly Cloudy
8:53 PM 77.0 °F - 66.9 °F 71% 29.92 in 10.0 mi SSE 10.4 mph - N/A   Clear
9:53 PM 75.0 °F - 66.0 °F 73% 29.93 in 10.0 mi SSE 11.5 mph - N/A   Clear
10:53 PM 73.0 °F - 66.0 °F 79% 29.94 in 10.0 mi South 9.2 mph - N/A   Clear
11:53 PM 70.0 °F - 66.0 °F 87% 29.94 in 10.0 mi South 6.9 mph - N/A   Clear